Location: Saddleback Butte
(34.6776°N, 117.8050°W)
Time: 19:04:33
(UTC-07:00)

Iridium 35 - Visible Passes

Search period start: 30 March 2015 00:00
Search period end: 09 April 2015 00:00
Orbit: 776 x 779 km, 86.4° (Epoch: 30 March)

Date Brightness Start Highest point End Pass type
(mag) Time Alt. Az. Time Alt. Az. Time Alt. Az.
30 Mar 5.3 19:58:29 10° N 20:03:42 76° W 20:08:54 10° S visible
31 Mar 8.1 21:07:50 10° NW 21:10:28 13° W 21:12:46 10° WSW visible
01 Apr 7.3 20:32:50 10° NNW 20:37:09 26° W 20:41:21 10° SW visible
02 Apr 6.1 19:58:43 10° NNW 20:03:46 50° W 20:08:46 10° SSW visible
04 Apr 8.0 20:33:37 10° NW 20:37:07 18° W 20:40:24 10° WSW visible
05 Apr 7.0 19:59:06 10° NNW 20:03:47 34° W 20:08:23 10° SSW visible
07 Apr 8.4 20:35:10 10° WNW 20:37:04 12° W 20:38:37 10° W visible
08 Apr 7.8 19:59:41 10° NNW 20:03:46 23° W 20:07:42 10° SW visible
